Time,TemperatureF,DewpointF,PressureIn,WindDirection,WindDirectionDegrees,WindSpeedMPH,WindSpeedGustMPH,Humidity,HourlyPrecipIn,Conditions,Clouds,dailyrainin,SolarRadiationWatts/m^2,SoftwareType,DateUTC
2013-08-01 00:04:00,77.8,50.9,29.97,NE,49,4.6,4.6,39,0.00,CLR,FEW,0.00,0.0,WeatherDisplay:10.37,2013-07-31 22:04:00,
2013-08-01 00:09:00,77.6,51.4,29.97,NE,42,3.5,3.5,40,0.00,CLR,FEW,0.00,0.0,WeatherDisplay:10.37,2013-07-31 22:09:00,
2013-08-01 00:14:00,77.1,52.2,29.96,ENE,57,3.5,3.5,42,0.00,CLR,FEW,0.00,0.0,WeatherDisplay:10.37,2013-07-31 22:14:00,
2013-08-01 00:19:00,77.0,52.1,29.97,NE,55,3.5,3.5,42,0.00,CLR,FEW,0.00,0.0,WeatherDisplay:10.37,2013-07-31 22:19:00,
2013-08-01 00:24:00,76.8,53.2,29.97,NE,39,3.5,3.5,44,0.00,CLR,FEW,0.00,0.0,WeatherDisplay:10.37,2013-07-31 22:24:00,
2013-08-01 00:29:00,76.6,54.3,29.97,NNE,24,3.5,3.5,46,0.00,CLR,FEW,0.00,0.0,WeatherDisplay:10.37,2013-07-31 22:29:00,
2013-08-01 00:34:00,76.4,54.1,29.97,NE,55,3.5,3.5,46,0.00,CLR,FEW,0.00,0.0,WeatherDisplay:10.37,2013-07-31 22:34:00,
2013-08-01 00:39:00,76.5,55.9,29.96,NE,35,8.1,8.1,49,0.00,CLR,FEW,0.00,0.0,WeatherDisplay:10.37,2013-07-31 22:39:00,
2013-08-01 00:44:00,76.6,56.6,29.96,NE,53,6.9,6.9,50,0.00,CLR,FEW,0.00,0.0,WeatherDisplay:10.37,2013-07-31 22:44:00,
2013-08-01 00:49:00,76.4,55.3,29.96,NE,53,11.5,11.5,48,0.00,CLR,FEW,0.00,0.0,WeatherDisplay:10.37,2013-07-31 22:49:00,
2013-08-01 00:54:00,76.6,56.0,29.96,NE,51,6.0,6.0,49,0.00,CLR,FEW,0.00,0.0,WeatherDisplay:10.37,2013-07-31 22:54:00,
2013-08-01 00:59:00,76.6,56.0,29.96,NE,44,5.0,5.0,49,0.00,CLR,FEW,0.00,0.0,WeatherDisplay:10.37,2013-07-31 22:59:00,
2013-08-01 01:04:00,76.5,56.5,29.96,NE,43,6.9,6.9,50,0.00,CLR,FEW,0.00,0.0,WeatherDisplay:10.37,2013-07-31 23:04:00,
2013-08-01 01:10:00,76.2,57.3,29.96,NE,49,4.6,4.6,52,0.00,CLR,FEW,0.00,0.0,WeatherDisplay:10.37,2013-07-31 23:10:00,
2013-08-01 01:15:00,76.3,57.4,29.96,NE,56,6.9,6.9,52,0.00,CLR,FEW,0.00,0.0,WeatherDisplay:10.37,2013-07-31 23:15:00,
2013-08-01 01:20:00,76.2,57.3,29.96,NE,56,5.8,5.8,52,0.00,CLR,FEW,0.00,0.0,WeatherDisplay:10.37,2013-07-31 23:20:00,
2013-08-01 01:25:00,76.0,56.6,29.96,NE,54,5.0,5.0,51,0.00,CLR,FEW,0.00,0.0,WeatherDisplay:10.37,2013-07-31 23:25:00,
2013-08-01 01:30:00,76.1,56.7,29.96,NE,51,3.5,3.5,51,0.00,CLR,FEW,0.00,0.0,WeatherDisplay:10.37,2013-07-31 23:30:00,
2013-08-01 01:35:00,76.1,56.1,29.96,NNE,23,5.8,5.8,50,0.00,CLR,FEW,0.00,0.0,WeatherDisplay:10.37,2013-07-31 23:35:00,
2013-08-01 01:40:00,76.3,56.8,29.96,NE,36,6.9,6.9,51,0.00,CLR,FEW,0.00,0.0,WeatherDisplay:10.37,2013-07-31 23:40:00,
2013-08-01 01:45:00,76.3,56.3,29.96,NE,51,4.0,4.0,50,0.00,CLR,FEW,0.00,0.0,WeatherDisplay:10.37,2013-07-31 23:45:00,
2013-08-01 01:50:00,76.1,56.7,29.96,NNE,29,3.5,3.5,51,0.00,CLR,FEW,0.00,0.0,WeatherDisplay:10.37,2013-07-31 23:50:00,
2013-08-01 01:55:00,76.3,56.8,29.96,NE,47,8.1,8.1,51,0.00,CLR,FEW,0.00,0.0,WeatherDisplay:10.37,2013-07-31 23:55:00,
2013-08-01 02:00:00,76.4,56.9,29.95,NE,42,4.6,4.6,51,0.00,CLR,FEW,0.00,0.0,WeatherDisplay:10.37,2013-08-01 00:00:00,
2013-08-01 02:05:00,76.4,56.9,29.95,ENE,57,6.9,6.9,51,0.00,CLR,FEW,0.00,0.0,WeatherDisplay:10.37,2013-08-01 00:05:00,
2013-08-01 02:10:00,76.2,57.3,29.95,ENE,59,6.9,6.9,52,0.00,CLR,FEW,0.00,0.0,WeatherDisplay:10.37,2013-08-01 00:10:00,
2013-08-01 02:15:00,76.1,57.2,29.95,NNE,32,5.0,5.0,52,0.00,CLR,FEW,0.00,0.0,WeatherDisplay:10.37,2013-08-01 00:15:00,
2013-08-01 02:20:00,76.3,57.4,29.95,NNE,30,10.4,10.4,52,0.00,CLR,FEW,0.00,0.0,WeatherDisplay:10.37,2013-08-01 00:20:00,
2013-08-01 02:25:00,76.4,57.5,29.95,NE,51,8.0,8.0,52,0.00,CLR,FEW,0.00,0.0,WeatherDisplay:10.37,2013-08-01 00:25:00,
2013-08-01 02:30:00,76.4,56.9,29.95,ENE,68,6.9,6.9,51,0.00,CLR,FEW,0.00,0.0,WeatherDisplay:10.37,2013-08-01 00:30:00,
2013-08-01 02:35:00,76.5,57.0,29.95,NE,40,9.0,9.0,51,0.00,CLR,FEW,0.00,0.0,WeatherDisplay:10.37,2013-08-01 00:35:00,
2013-08-01 02:40:00,76.5,57.0,29.95,ENE,61,4.6,4.6,51,0.00,CLR,FEW,0.00,0.0,WeatherDisplay:10.37,2013-08-01 00:40:00,
2013-08-01 02:45:00,76.1,56.7,29.95,ENE,59,8.0,8.0,51,0.00,CLR,FEW,0.00,0.0,WeatherDisplay:10.37,2013-08-01 00:45:00,
2013-08-01 02:50:00,76.2,56.2,29.95,NNE,24,4.0,4.0,50,0.00,CLR,FEW,0.00,0.0,WeatherDisplay:10.37,2013-08-01 00:50:00,
2013-08-01 02:55:00,76.4,55.8,29.95,NE,55,8.1,8.1,49,0.00,CLR,FEW,0.00,0.0,WeatherDisplay:10.37,2013-08-01 00:55:00,
2013-08-01 03:00:00,76.6,56.6,29.95,NNE,26,9.2,9.2,50,0.00,CLR,FEW,0.00,0.0,WeatherDisplay:10.37,2013-08-01 01:00:00,
2013-08-01 03:05:00,76.6,56.6,29.95,NE,38,10.4,10.4,50,0.00,CLR,FEW,0.00,0.0,WeatherDisplay:10.37,2013-08-01 01:05:00,
2013-08-01 03:10:00,76.6,56.0,29.94,NE,53,11.5,11.5,49,0.00,CLR,FEW,0.00,0.0,WeatherDisplay:10.37,2013-08-01 01:10:00,
2013-08-01 03:15:00,76.5,57.6,29.94,NE,44,6.9,6.9,52,0.00,CLR,FEW,0.00,0.0,WeatherDisplay:10.37,2013-08-01 01:15:00,
2013-08-01 03:20:00,76.3,57.9,29.94,NE,56,10.0,10.0,53,0.00,CLR,FEW,0.00,0.0,WeatherDisplay:10.37,2013-08-01 01:20:00,
2013-08-01 03:25:00,76.5,57.6,29.95,NE,46,12.7,12.7,52,0.00,CLR,FEW,0.00,0.0,WeatherDisplay:10.37,2013-08-01 01:25:00,
2013-08-01 03:30:00,76.6,58.2,29.94,NNE,32,9.2,9.2,53,0.00,CLR,FEW,0.00,0.0,WeatherDisplay:10.37,2013-08-01 01:30:00,
2013-08-01 03:35:00,76.6,58.2,29.94,NE,55,8.1,8.1,53,0.00,CLR,FEW,0.00,0.0,WeatherDisplay:10.37,2013-08-01 01:35:00,
2013-08-01 03:40:00,76.7,57.7,29.94,ENE,77,12.7,12.7,52,0.00,CLR,FEW,0.00,0.0,WeatherDisplay:10.37,2013-08-01 01:40:00,
2013-08-01 03:45:00,76.8,57.3,29.95,ENE,58,10.4,10.4,51,0.00,CLR,FEW,0.00,0.0,WeatherDisplay:10.37,2013-08-01 01:45:00,
2013-08-01 03:50:00,76.8,57.3,29.94,ENE,62,11.5,11.5,51,0.00,CLR,FEW,0.00,0.0,WeatherDisplay:10.37,2013-08-01 01:50:00,
2013-08-01 03:55:00,76.7,57.2,29.94,East,99,8.1,8.1,51,0.00,CLR,FEW,0.00,0.0,WeatherDisplay:10.37,2013-08-01 01:55:00,
2013-08-01 04:00:00,76.8,57.3,29.94,NE,36,12.0,12.0,51,0.00,CLR,FEW,0.00,0.0,WeatherDisplay:10.37,2013-08-01 02:00:00,
2013-08-01 04:05:00,76.8,57.3,29.95,NE,50,11.5,11.5,51,0.00,CLR,FEW,0.00,0.0,WeatherDisplay:10.37,2013-08-01 02:05:00,
2013-08-01 04:10:00,76.7,57.2,29.94,NE,43,6.9,6.9,51,0.00,CLR,FEW,0.00,0.0,WeatherDisplay:10.37,2013-08-01 02:10:00,
2013-08-01 04:15:00,76.6,58.2,29.95,NNE,16,9.2,9.2,53,0.00,CLR,FEW,0.00,0.0,WeatherDisplay:10.37,2013-08-01 02:15:00,
2013-08-01 04:20:00,76.5,58.1,29.95,NE,46,9.2,9.2,53,0.00,CLR,FEW,0.00,0.0,WeatherDisplay:10.37,2013-08-01 02:20:00,
2013-08-01 04:25:00,76.3,58.9,29.95,NE,53,6.0,6.0,55,0.00,CLR,FEW,0.00,0.0,WeatherDisplay:10.37,2013-08-01 02:25:00,
2013-08-01 04:30:00,76.1,59.3,29.95,North,11,11.5,11.5,56,0.00,CLR,FEW,0.00,0.0,WeatherDisplay:10.37,2013-08-01 02:30:00,
2013-08-01 04:35:00,76.0,59.2,29.95,ENE,67,6.9,6.9,56,0.00,CLR,FEW,0.00,0.0,WeatherDisplay:10.37,2013-08-01 02:35:00,
2013-08-01 04:40:00,76.0,59.2,29.95,ENE,77,12.7,12.7,56,0.00,CLR,FEW,0.00,0.0,WeatherDisplay:10.37,2013-08-01 02:40:00,
2013-08-01 04:45:00,76.1,59.8,29.95,NNE,28,11.5,11.5,57,0.00,CLR,FEW,0.00,0.0,WeatherDisplay:10.37,2013-08-01 02:45:00,
2013-08-01 04:50:00,75.9,60.1,29.95,NE,39,8.0,8.0,58,0.00,CLR,FEW,0.00,0.0,WeatherDisplay:10.37,2013-08-01 02:50:00,
2013-08-01 04:55:00,75.7,59.4,29.95,NE,53,9.0,9.0,57,0.00,CLR,FEW,0.00,0.0,WeatherDisplay:10.37,2013-08-01 02:55:00,
2013-08-01 05:00:00,75.6,60.3,29.95,NE,56,10.4,10.4,59,0.00,CLR,FEW,0.00,0.0,WeatherDisplay:10.37,2013-08-01 03:00:00,
2013-08-01 05:05:00,75.4,60.5,29.95,North,5,6.9,6.9,60,0.00,CLR,FEW,0.00,0.0,WeatherDisplay:10.37,2013-08-01 03:05:00,
2013-08-01 05:10:00,75.2,60.4,29.95,NE,37,8.1,8.1,60,0.00,CLR,FEW,0.00,0.0,WeatherDisplay:10.37,2013-08-01 03:10:00,
2013-08-01 05:15:00,75.1,60.7,29.95,ENE,58,8.1,8.1,61,0.00,CLR,FEW,0.00,0.0,WeatherDisplay:10.37,2013-08-01 03:15:00,
2013-08-01 05:20:00,75.0,60.6,29.95,NE,34,8.1,8.1,61,0.00,CLR,FEW,0.00,0.0,WeatherDisplay:10.37,2013-08-01 03:20:00,
2013-08-01 05:25:00,75.1,60.7,29.95,ENE,76,10.4,10.4,61,0.00,CLR,FEW,0.00,0.0,WeatherDisplay:10.37,2013-08-01 03:25:00,
2013-08-01 05:30:00,74.9,60.5,29.95,NE,51,8.1,8.1,61,0.00,OVC,FEW,0.00,0.0,WeatherDisplay:10.37,2013-08-01 03:30:00,
2013-08-01 05:35:00,74.7,60.4,29.95,NE,47,6.9,6.9,61,0.00,OVC,FEW,0.00,0.0,WeatherDisplay:10.37,2013-08-01 03:35:00,
2013-08-01 05:40:00,74.7,60.8,29.95,NE,47,4.0,4.0,62,0.00,OVC,FEW,0.00,0.0,WeatherDisplay:10.37,2013-08-01 03:40:00,
2013-08-01 05:45:00,74.7,61.3,29.95,NNE,13,8.1,8.1,63,0.00,OVC,FEW,0.00,0.0,WeatherDisplay:10.37,2013-08-01 03:45:00,
2013-08-01 05:50:00,74.7,61.7,29.95,NNE,26,11.5,11.5,64,0.00,OVC,FEW,0.00,0.0,WeatherDisplay:10.37,2013-08-01 03:50:00,
2013-08-01 05:55:00,74.5,61.5,29.95,ENE,59,8.1,8.1,64,0.00,OVC,FEW,0.00,0.0,WeatherDisplay:10.37,2013-08-01 03:55:00,
2013-08-01 06:00:00,74.3,61.3,29.95,NE,49,11.5,11.5,64,0.00,OVC,FEW,0.00,0.0,WeatherDisplay:10.37,2013-08-01 04:00:00,
2013-08-01 06:01:00,74.3,61.3,29.95,NE,49,11.5,11.5,64,0.00,OVC,FEW,0.00,0.0,WeatherDisplay:10.37,2013-08-01 04:01:00,
2013-08-01 06:02:00,74.3,61.3,29.95,ENE,60,5.8,5.8,64,0.00,OVC,FEW,0.00,0.0,WeatherDisplay:10.37,2013-08-01 04:02:00,
2013-08-01 06:03:00,74.3,61.3,29.95,NNE,32,5.8,5.8,64,0.00,OVC,FEW,0.00,0.0,WeatherDisplay:10.37,2013-08-01 04:03:00,
2013-08-01 06:08:00,74.4,61.9,29.95,NE,42,7.0,7.0,65,0.00,OVC,FEW,0.00,0.0,WeatherDisplay:10.37,2013-08-01 04:08:00,
2013-08-01 06:13:00,74.5,62.0,29.95,North,9,8.1,8.1,65,0.00,OVC,FEW,0.00,0.0,WeatherDisplay:10.37,2013-08-01 04:13:00,
2013-08-01 06:18:00,74.3,61.3,29.95,NNE,26,6.0,6.0,64,0.00,OVC,FEW,0.00,0.0,WeatherDisplay:10.37,2013-08-01 04:18:00,
2013-08-01 06:23:00,74.4,61.9,29.95,NNE,29,6.9,6.9,65,0.00,OVC,FEW,0.00,0.0,WeatherDisplay:10.37,2013-08-01 04:23:00,
2013-08-01 06:28:00,74.4,61.9,29.95,NE,44,10.0,10.0,65,0.00,OVC,FEW,0.00,0.0,WeatherDisplay:10.37,2013-08-01 04:28:00,
2013-08-01 06:33:00,74.4,61.4,29.95,NE,41,8.1,8.1,64,0.00,OVC,FEW,0.00,0.0,WeatherDisplay:10.37,2013-08-01 04:33:00,
2013-08-01 06:38:00,74.7,61.3,29.95,NNE,19,10.4,10.4,63,0.00,OVC,FEW,0.00,0.0,WeatherDisplay:10.37,2013-08-01 04:38:00,
2013-08-01 06:43:00,75.1,61.2,29.96,ESE,103,8.1,8.1,62,0.00,OVC,FEW,0.00,0.0,WeatherDisplay:10.37,2013-08-01 04:43:00,
2013-08-01 06:48:00,75.4,61.9,29.96,NE,41,6.9,6.9,63,0.00,OVC,FEW,0.00,0.0,WeatherDisplay:10.37,2013-08-01 04:48:00,
2013-08-01 06:53:00,75.5,62.0,29.96,NE,42,8.1,8.1,63,0.00,OVC,FEW,0.00,0.0,WeatherDisplay:10.37,2013-08-01 04:53:00,
2013-08-01 06:58:00,75.6,61.2,29.96,NE,49,11.5,11.5,61,0.00,OVC,FEW,0.00,0.0,WeatherDisplay:10.37,2013-08-01 04:58:00,
2013-08-01 07:03:00,76.0,60.2,29.96,ENE,61,10.4,10.4,58,0.00,OVC,FEW,0.00,0.0,WeatherDisplay:10.37,2013-08-01 05:03:00,
2013-08-01 07:08:00,76.4,60.5,29.96,NE,45,10.4,10.4,58,0.00,OVC,FEW,0.00,0.0,WeatherDisplay:10.37,2013-08-01 05:08:00,
2013-08-01 07:13:00,76.6,61.2,29.96,NE,51,10.4,10.4,59,0.00,OVC,FEW,0.00,0.0,WeatherDisplay:10.37,2013-08-01 05:13:00,
2013-08-01 07:18:00,76.7,60.3,29.96,ENE,68,10.4,10.4,57,0.00,OVC,FEW,0.00,0.0,WeatherDisplay:10.37,2013-08-01 05:18:00,
2013-08-01 07:23:00,76.8,60.9,29.96,NNE,30,8.0,8.0,58,0.00,OVC,FEW,0.00,0.0,WeatherDisplay:10.37,2013-08-01 05:23:00,
2013-08-01 07:28:00,76.9,61.0,29.96,NE,42,6.9,6.9,58,0.00,OVC,FEW,0.00,0.0,WeatherDisplay:10.37,2013-08-01 05:28:00,
2013-08-01 07:33:00,76.9,62.0,29.96,NE,51,6.0,6.0,60,0.00,OVC,FEW,0.00,0.0,WeatherDisplay:10.37,2013-08-01 05:33:00,
2013-08-01 07:38:00,77.0,62.0,29.96,NE,35,9.2,9.2,60,0.00,OVC,FEW,0.00,0.0,WeatherDisplay:10.37,2013-08-01 05:38:00,
2013-08-01 07:43:00,77.0,62.5,29.96,NNE,26,10.4,10.4,61,0.00,OVC,FEW,0.00,0.0,WeatherDisplay:10.37,2013-08-01 05:43:00,
2013-08-01 07:48:00,77.1,63.1,29.96,NE,44,9.2,9.2,62,0.00,OVC,FEW,0.00,0.0,WeatherDisplay:10.37,2013-08-01 05:48:00,
2013-08-01 07:53:00,77.0,63.0,29.97,NE,51,11.5,11.5,62,0.00,OVC,FEW,0.00,0.0,WeatherDisplay:10.37,2013-08-01 05:53:00,
2013-08-01 07:58:00,77.1,62.1,29.97,ENE,57,11.0,11.0,60,0.00,OVC,FEW,0.00,0.0,WeatherDisplay:10.37,2013-08-01 05:58:00,
2013-08-01 08:03:00,77.2,62.2,29.97,ENE,66,13.8,13.8,60,0.00,OVC,FEW,0.00,0.0,WeatherDisplay:10.37,2013-08-01 06:03:00,
2013-08-01 08:08:00,77.4,61.5,29.97,ENE,67,12.7,12.7,58,0.00,OVC,FEW,0.00,0.0,WeatherDisplay:10.37,2013-08-01 06:08:00,
2013-08-01 08:13:00,77.7,61.7,29.97,NE,41,11.0,11.0,58,0.00,OVC,FEW,0.00,0.0,WeatherDisplay:10.37,2013-08-01 06:13:00,
2013-08-01 08:18:00,78.1,62.1,29.97,NE,49,8.1,8.1,58,0.00,OVC,FEW,0.00,0.0,WeatherDisplay:10.37,2013-08-01 06:18:00,
2013-08-01 08:23:00,78.1,62.1,29.97,NNE,22,9.2,9.2,58,0.00,OVC,FEW,0.00,0.0,WeatherDisplay:10.37,2013-08-01 06:23:00,
2013-08-01 08:28:00,78.4,61.9,29.97,NE,54,11.5,11.5,57,0.00,OVC,FEW,0.00,0.0,WeatherDisplay:10.37,2013-08-01 06:28:00,
2013-08-01 08:33:00,78.4,61.9,29.97,NE,42,12.7,12.7,57,0.00,OVC,FEW,0.00,0.0,WeatherDisplay:10.37,2013-08-01 06:33:00,
2013-08-01 08:38:00,78.7,61.7,29.97,NE,36,8.1,8.1,56,0.00,OVC,FEW,0.00,0.0,WeatherDisplay:10.37,2013-08-01 06:38:00,
2013-08-01 08:43:00,78.9,60.8,29.97,NE,49,17.3,17.3,54,0.00,OVC,FEW,0.00,0.0,WeatherDisplay:10.37,2013-08-01 06:43:00,
2013-08-01 08:48:00,79.1,60.5,29.98,NNE,22,13.8,13.8,53,0.00,OVC,FEW,0.00,0.0,WeatherDisplay:10.37,2013-08-01 06:48:00,
2013-08-01 08:53:00,79.4,60.8,29.98,NE,35,9.2,9.2,53,0.00,OVC,FEW,0.00,0.0,WeatherDisplay:10.37,2013-08-01 06:53:00,
2013-08-01 08:58:00,79.9,60.7,29.98,NNE,32,10.4,10.4,52,0.00,OVC,FEW,0.00,0.0,WeatherDisplay:10.37,2013-08-01 06:58:00,
2013-08-01 09:03:00,79.8,60.1,29.98,NE,49,11.5,11.5,51,0.00,OVC,FEW,0.00,0.0,WeatherDisplay:10.37,2013-08-01 07:03:00,
2013-08-01 09:08:00,79.7,60.5,29.98,North,5,11.5,11.5,52,0.00,OVC,FEW,0.00,0.0,WeatherDisplay:10.37,2013-08-01 07:08:00,
2013-08-01 09:13:00,79.9,60.7,29.98,North,9,10.0,10.0,52,0.00,OVC,FEW,0.00,0.0,WeatherDisplay:10.37,2013-08-01 07:13:00,
2013-08-01 09:18:00,80.1,60.3,29.98,NE,36,11.5,11.5,51,0.00,OVC,FEW,0.00,0.0,WeatherDisplay:10.37,2013-08-01 07:18:00,
2013-08-01 09:23:00,80.2,59.9,29.98,NE,38,11.5,11.5,50,0.00,OVC,FEW,0.00,0.0,WeatherDisplay:10.37,2013-08-01 07:23:00,
2013-08-01 09:28:00,80.2,60.4,29.98,NNE,24,11.5,11.5,51,0.00,OVC,FEW,0.00,0.0,WeatherDisplay:10.37,2013-08-01 07:28:00,
2013-08-01 09:33:00,80.4,59.5,29.97,NE,48,15.0,15.0,49,0.00,OVC,FEW,0.00,0.0,WeatherDisplay:10.37,2013-08-01 07:33:00,
2013-08-01 09:38:00,80.8,60.4,29.97,NE,34,11.5,11.5,50,0.00,OVC,FEW,0.00,0.0,WeatherDisplay:10.37,2013-08-01 07:38:00,
2013-08-01 09:43:00,80.7,60.3,29.98,NE,47,11.5,11.5,50,0.00,OVC,FEW,0.00,0.0,WeatherDisplay:10.37,2013-08-01 07:43:00,
2013-08-01 09:48:00,80.7,60.3,29.97,NE,43,13.8,13.8,50,0.00,OVC,FEW,0.00,0.0,WeatherDisplay:10.37,2013-08-01 07:48:00,
2013-08-01 09:54:00,81.1,61.3,29.98,NE,46,10.4,10.4,51,0.00,OVC,FEW,0.00,0.0,WeatherDisplay:10.37,2013-08-01 07:54:00,
2013-08-01 09:59:00,81.4,60.4,29.97,NNE,29,11.5,11.5,49,0.00,OVC,FEW,0.00,0.0,WeatherDisplay:10.37,2013-08-01 07:59:00,
2013-08-01 10:04:00,81.5,59.3,29.98,NNE,26,13.8,13.8,47,0.00,OVC,FEW,0.00,0.0,WeatherDisplay:10.37,2013-08-01 08:04:00,
2013-08-01 10:10:00,81.9,59.7,29.97,NE,37,14.0,14.0,47,0.00,OVC,FEW,0.00,0.0,WeatherDisplay:10.37,2013-08-01 08:10:00,
2013-08-01 10:15:00,81.9,59.7,29.98,ENE,65,17.3,17.3,47,0.00,OVC,FEW,0.00,0.0,WeatherDisplay:10.37,2013-08-01 08:15:00,
2013-08-01 10:20:00,82.1,59.3,29.98,ENE,66,18.4,18.4,46,0.00,OVC,FEW,0.00,0.0,WeatherDisplay:10.37,2013-08-01 08:20:00,
2013-08-01 10:25:00,82.2,60.0,29.98,ENE,58,17.3,17.3,47,0.00,OVC,FEW,0.00,0.0,WeatherDisplay:10.37,2013-08-01 08:25:00,
2013-08-01 10:30:00,82.7,59.2,29.98,NE,49,12.7,12.7,45,0.00,OVC,FEW,0.00,0.0,WeatherDisplay:10.37,2013-08-01 08:30:00,
2013-08-01 10:35:00,82.6,59.7,29.98,NE,54,18.4,18.4,46,0.00,OVC,FEW,0.00,0.0,WeatherDisplay:10.37,2013-08-01 08:35:00,
2013-08-01 10:41:00,82.6,59.1,29.98,ENE,67,15.0,15.0,45,0.00,OVC,FEW,0.00,0.0,WeatherDisplay:10.37,2013-08-01 08:41:00,
2013-08-01 10:46:00,82.8,59.9,29.98,NNE,18,11.5,11.5,46,0.00,OVC,FEW,0.00,0.0,WeatherDisplay:10.37,2013-08-01 08:46:00,
2013-08-01 10:54:00,83.1,58.9,29.98,NE,50,12.7,12.7,44,0.00,OVC,FEW,0.00,0.0,WeatherDisplay:10.37,2013-08-01 08:54:00,
2013-08-01 10:59:00,83.1,59.6,29.98,North,10,10.4,10.4,45,0.00,OVC,FEW,0.00,0.0,WeatherDisplay:10.37,2013-08-01 08:59:00,
2013-08-01 11:05:00,82.9,60.0,29.98,NE,45,11.5,11.5,46,0.00,OVC,FEW,0.00,0.0,WeatherDisplay:10.37,2013-08-01 09:05:00,
2013-08-01 11:10:00,83.4,60.4,29.98,NNE,12,13.8,13.8,46,0.00,OVC,FEW,0.00,0.0,WeatherDisplay:10.37,2013-08-01 09:10:00,
2013-08-01 11:15:00,83.5,59.9,29.98,NNE,21,16.0,16.0,45,0.00,OVC,FEW,0.00,0.0,WeatherDisplay:10.37,2013-08-01 09:15:00,
2013-08-01 11:21:00,83.5,60.5,29.98,NE,39,5.0,16.0,46,0.00,OVC,FEW,0.00,0.0,WeatherDisplay:10.37,2013-08-01 09:21:00,
2013-08-01 11:27:00,83.7,60.7,29.98,NE,40,12.7,12.7,46,0.00,OVC,FEW,0.00,0.0,WeatherDisplay:10.37,2013-08-01 09:27:00,
2013-08-01 11:33:00,83.9,60.9,29.98,NE,36,11.5,11.5,46,0.00,OVC,FEW,0.00,0.0,WeatherDisplay:10.37,2013-08-01 09:33:00,
2013-08-01 11:39:00,84.1,61.1,29.98,NE,44,10.4,10.4,46,0.00,OVC,FEW,0.00,0.0,WeatherDisplay:10.37,2013-08-01 09:39:00,
2013-08-01 11:45:00,84.7,61.6,29.98,NE,37,10.4,10.4,46,0.00,OVC,FEW,0.00,0.0,WeatherDisplay:10.37,2013-08-01 09:45:00,
2013-08-01 11:50:00,84.5,60.8,29.98,NNE,30,9.2,9.2,45,0.00,OVC,FEW,0.00,0.0,WeatherDisplay:10.37,2013-08-01 09:50:00,
2013-08-01 11:57:00,85.1,62.6,29.98,NE,35,8.1,8.1,47,0.00,OVC,FEW,0.00,0.0,WeatherDisplay:10.37,2013-08-01 09:57:00,
2013-08-01 12:02:00,84.9,61.2,29.98,NNE,31,9.0,9.0,45,0.00,OVC,FEW,0.00,0.0,WeatherDisplay:10.37,2013-08-01 10:02:00,
2013-08-01 12:08:00,84.4,62.0,29.98,NNE,30,10.0,10.0,47,0.00,OVC,FEW,0.00,0.0,WeatherDisplay:10.37,2013-08-01 10:08:00,
2013-08-01 12:14:00,85.1,62.0,29.97,NNE,31,9.2,9.2,46,0.00,OVC,FEW,0.00,0.0,WeatherDisplay:10.37,2013-08-01 10:14:00,
2013-08-01 12:20:00,84.9,61.2,29.97,NNE,26,10.4,10.4,45,0.00,OVC,FEW,0.00,0.0,WeatherDisplay:10.37,2013-08-01 10:20:00,
2013-08-01 12:26:00,85.0,63.1,29.97,NNE,23,6.9,6.9,48,0.00,OVC,FEW,0.00,0.0,WeatherDisplay:10.37,2013-08-01 10:26:00,
2013-08-01 12:31:00,85.2,61.5,29.97,NNE,28,6.0,10.0,45,0.00,OVC,FEW,0.00,0.0,WeatherDisplay:10.37,2013-08-01 10:31:00,
2013-08-01 12:36:00,85.2,62.1,29.97,NNE,24,11.5,11.5,46,0.00,OVC,FEW,0.00,0.0,WeatherDisplay:10.37,2013-08-01 10:36:00,
2013-08-01 12:42:00,85.7,61.9,29.97,NE,36,11.5,11.5,45,0.00,OVC,FEW,0.00,0.0,WeatherDisplay:10.37,2013-08-01 10:42:00,
2013-08-01 12:48:00,85.7,60.6,29.97,NW,312,9.2,9.2,43,0.00,OVC,FEW,0.00,0.0,WeatherDisplay:10.37,2013-08-01 10:48:00,
2013-08-01 12:53:00,85.9,60.8,29.97,NNE,17,11.5,11.5,43,0.00,OVC,FEW,0.00,0.0,WeatherDisplay:10.37,2013-08-01 10:53:00,
2013-08-01 12:59:00,86.1,61.6,29.96,NE,55,10.4,10.4,44,0.00,OVC,FEW,0.00,0.0,WeatherDisplay:10.37,2013-08-01 10:59:00,
2013-08-01 13:05:00,86.0,61.5,29.96,NNE,31,9.2,9.2,44,0.00,OVC,FEW,0.00,0.0,WeatherDisplay:10.37,2013-08-01 11:05:00,
2013-08-01 13:10:00,86.8,62.3,29.97,NE,51,9.2,9.2,44,0.00,OVC,FEW,0.00,0.0,WeatherDisplay:10.37,2013-08-01 11:10:00,
2013-08-01 13:15:00,86.6,60.8,29.96,NE,34,9.2,9.2,42,0.00,OVC,FEW,0.00,0.0,WeatherDisplay:10.37,2013-08-01 11:15:00,
2013-08-01 13:20:00,86.8,60.3,29.96,NNE,30,11.5,11.5,41,0.00,OVC,FEW,0.00,0.0,WeatherDisplay:10.37,2013-08-01 11:20:00,
2013-08-01 13:26:00,86.6,60.8,29.96,NNE,12,13.0,13.0,42,0.00,OVC,FEW,0.00,0.0,WeatherDisplay:10.37,2013-08-01 11:26:00,
2013-08-01 13:33:00,86.6,59.4,29.96,NNE,22,5.8,5.8,40,0.00,OVC,FEW,0.00,0.0,WeatherDisplay:10.37,2013-08-01 11:33:00,
2013-08-01 13:41:00,86.7,64.1,29.96,WNW,288,9.2,9.2,47,0.00,OVC,FEW,0.00,0.0,WeatherDisplay:10.37,2013-08-01 11:41:00,
2013-08-01 13:47:00,86.6,64.6,29.96,North,360,3.5,3.5,48,0.00,OVC,FEW,0.00,0.0,WeatherDisplay:10.37,2013-08-01 11:47:00,
2013-08-01 13:52:00,86.1,64.7,29.96,NW,311,2.3,2.3,49,0.00,OVC,FEW,0.00,0.0,WeatherDisplay:10.37,2013-08-01 11:52:00,
2013-08-01 13:58:00,85.0,64.8,29.96,NW,321,11.5,11.5,51,0.00,OVC,FEW,0.00,0.0,WeatherDisplay:10.37,2013-08-01 11:58:00,
2013-08-01 14:03:00,87.2,65.7,29.96,West,280,4.6,4.6,49,0.00,OVC,FEW,0.00,0.0,WeatherDisplay:10.37,2013-08-01 12:03:00,
2013-08-01 14:09:00,86.6,63.4,29.96,NNW,327,3.5,3.5,46,0.00,OVC,FEW,0.00,0.0,WeatherDisplay:10.37,2013-08-01 12:09:00,
2013-08-01 14:15:00,87.0,63.1,29.96,NE,52,6.9,6.9,45,0.00,OVC,FEW,0.00,0.0,WeatherDisplay:10.37,2013-08-01 12:15:00,
2013-08-01 14:21:00,87.1,61.9,29.96,NNE,27,6.9,6.9,43,0.00,OVC,FEW,0.00,0.0,WeatherDisplay:10.37,2013-08-01 12:21:00,
2013-08-01 14:27:00,87.2,62.0,29.96,NNE,30,6.9,6.9,43,0.00,OVC,FEW,0.00,0.0,WeatherDisplay:10.37,2013-08-01 12:27:00,
2013-08-01 14:32:00,87.7,61.8,29.96,NW,312,4.0,4.0,42,0.00,OVC,FEW,0.00,0.0,WeatherDisplay:10.37,2013-08-01 12:32:00,
2013-08-01 14:37:00,86.9,63.6,29.95,West,265,4.6,4.6,46,0.00,OVC,FEW,0.00,0.0,WeatherDisplay:10.37,2013-08-01 12:37:00,
2013-08-01 14:43:00,85.6,63.7,29.95,WNW,284,3.5,3.5,48,0.00,OVC,FEW,0.00,0.0,WeatherDisplay:10.37,2013-08-01 12:43:00,
2013-08-01 14:48:00,85.8,64.4,29.95,WNW,284,4.6,4.6,49,0.00,OVC,FEW,0.00,0.0,WeatherDisplay:10.37,2013-08-01 12:48:00,
2013-08-01 14:53:00,84.4,63.2,29.95,West,266,4.6,4.6,49,0.00,OVC,FEW,0.00,0.0,WeatherDisplay:10.37,2013-08-01 12:53:00,
2013-08-01 14:58:00,85.1,63.8,29.95,West,263,3.5,3.5,49,0.00,OVC,FEW,0.00,0.0,WeatherDisplay:10.37,2013-08-01 12:58:00,
2013-08-01 15:04:00,86.4,65.0,29.95,WNW,297,3.5,3.5,49,0.00,OVC,FEW,0.00,0.0,WeatherDisplay:10.37,2013-08-01 13:04:00,
2013-08-01 15:09:00,86.8,64.2,29.95,WNW,296,3.5,3.5,47,0.00,OVC,FEW,0.00,0.0,WeatherDisplay:10.37,2013-08-01 13:09:00,
2013-08-01 15:14:00,86.7,64.7,29.95,WNW,298,3.5,3.5,48,0.00,OVC,FEW,0.00,0.0,WeatherDisplay:10.37,2013-08-01 13:14:00,
2013-08-01 15:19:00,87.4,65.3,29.95,NW,308,2.3,2.3,48,0.00,OVC,FEW,0.00,0.0,WeatherDisplay:10.37,2013-08-01 13:19:00,
2013-08-01 15:24:00,86.4,65.0,29.95,WSW,245,3.5,3.5,49,0.00,OVC,FEW,0.00,0.0,WeatherDisplay:10.37,2013-08-01 13:24:00,
2013-08-01 15:29:00,86.3,63.7,29.95,WSW,255,6.9,6.9,47,0.00,OVC,FEW,0.00,0.0,WeatherDisplay:10.37,2013-08-01 13:29:00,
2013-08-01 15:34:00,85.7,64.3,29.95,North,350,3.5,3.5,49,0.00,OVC,FEW,0.00,0.0,WeatherDisplay:10.37,2013-08-01 13:34:00,
2013-08-01 15:40:00,86.0,64.0,29.95,West,281,3.5,3.5,48,0.00,OVC,FEW,0.00,0.0,WeatherDisplay:10.37,2013-08-01 13:40:00,
2013-08-01 15:45:00,85.6,64.2,29.95,SW,228,3.5,3.5,49,0.00,OVC,FEW,0.00,0.0,WeatherDisplay:10.37,2013-08-01 13:45:00,
2013-08-01 15:50:00,86.0,65.2,29.95,SW,229,3.5,3.5,50,0.00,OVC,FEW,0.00,0.0,WeatherDisplay:10.37,2013-08-01 13:50:00,
2013-08-01 15:56:00,85.9,64.5,29.95,WSW,244,3.5,3.5,49,0.00,OVC,FEW,0.00,0.0,WeatherDisplay:10.37,2013-08-01 13:56:00,
2013-08-01 16:03:00,86.2,64.2,29.95,WSW,251,3.5,3.5,48,0.00,OVC,FEW,0.00,0.0,WeatherDisplay:10.37,2013-08-01 14:03:00,
2013-08-01 16:08:00,86.4,65.6,29.95,NNW,342,3.5,3.5,50,0.00,OVC,FEW,0.00,0.0,WeatherDisplay:10.37,2013-08-01 14:08:00,
2013-08-01 16:15:00,86.7,65.3,29.95,WNW,296,5.8,5.8,49,0.00,OVC,FEW,0.00,0.0,WeatherDisplay:10.37,2013-08-01 14:15:00,
2013-08-01 16:20:00,85.9,64.5,29.95,SW,227,1.2,1.2,49,0.00,OVC,FEW,0.00,0.0,WeatherDisplay:10.37,2013-08-01 14:20:00,
2013-08-01 16:25:00,85.4,64.6,29.95,WNW,294,4.6,4.6,50,0.00,OVC,FEW,0.00,0.0,WeatherDisplay:10.37,2013-08-01 14:25:00,
2013-08-01 16:31:00,85.1,65.5,29.95,WSW,250,4.6,4.6,52,0.00,OVC,FEW,0.00,0.0,WeatherDisplay:10.37,2013-08-01 14:31:00,
2013-08-01 16:36:00,85.4,65.2,29.95,WSW,257,6.9,6.9,51,0.00,OVC,FEW,0.00,0.0,WeatherDisplay:10.37,2013-08-01 14:36:00,
2013-08-01 16:42:00,84.9,65.3,29.95,WSW,239,4.0,4.0,52,0.00,OVC,FEW,0.00,0.0,WeatherDisplay:10.37,2013-08-01 14:42:00,
2013-08-01 16:48:00,85.3,66.8,29.95,West,269,6.0,6.0,54,0.00,OVC,FEW,0.00,0.0,WeatherDisplay:10.37,2013-08-01 14:48:00,
2013-08-01 16:53:00,84.4,65.9,29.95,WSW,240,6.0,6.0,54,0.00,OVC,FEW,0.00,0.0,WeatherDisplay:10.37,2013-08-01 14:53:00,
2013-08-01 16:58:00,84.3,66.9,29.95,West,263,5.0,5.0,56,0.00,OVC,FEW,0.00,0.0,WeatherDisplay:10.37,2013-08-01 14:58:00,
2013-08-01 17:03:00,84.2,67.3,29.95,WSW,252,3.5,3.5,57,0.00,OVC,FEW,0.00,0.0,WeatherDisplay:10.37,2013-08-01 15:03:00,
2013-08-01 17:10:00,84.0,67.1,29.95,West,274,6.9,6.9,57,0.00,OVC,FEW,0.00,0.0,WeatherDisplay:10.37,2013-08-01 15:10:00,
2013-08-01 17:15:00,84.2,67.8,29.95,West,272,5.8,5.8,58,0.00,OVC,FEW,0.00,0.0,WeatherDisplay:10.37,2013-08-01 15:15:00,
2013-08-01 17:21:00,84.2,68.4,29.95,West,273,2.0,6.0,59,0.00,OVC,FEW,0.00,0.0,WeatherDisplay:10.37,2013-08-01 15:21:00,
2013-08-01 17:27:00,84.3,68.9,29.95,West,262,3.5,3.5,60,0.00,OVC,FEW,0.00,0.0,WeatherDisplay:10.37,2013-08-01 15:27:00,
2013-08-01 17:34:00,84.4,67.5,29.95,West,267,4.6,4.6,57,0.00,OVC,FEW,0.00,0.0,WeatherDisplay:10.37,2013-08-01 15:34:00,
2013-08-01 17:39:00,84.1,67.7,29.95,WSW,257,3.5,3.5,58,0.00,OVC,FEW,0.00,0.0,WeatherDisplay:10.37,2013-08-01 15:39:00,
2013-08-01 17:44:00,84.0,68.1,29.95,West,259,3.5,3.5,59,0.00,OVC,FEW,0.00,0.0,WeatherDisplay:10.37,2013-08-01 15:44:00,
2013-08-01 17:49:00,84.5,68.1,29.95,WSW,253,3.5,3.5,58,0.00,OVC,FEW,0.00,0.0,WeatherDisplay:10.37,2013-08-01 15:49:00,
2013-08-01 17:54:00,84.2,68.3,29.95,West,259,3.5,3.5,59,0.00,OVC,FEW,0.00,0.0,WeatherDisplay:10.37,2013-08-01 15:54:00,
2013-08-01 18:00:00,84.4,68.5,29.95,West,269,4.6,4.6,59,0.00,OVC,FEW,0.00,0.0,WeatherDisplay:10.37,2013-08-01 16:00:00,
2013-08-01 18:07:00,84.2,68.3,29.95,West,268,3.5,3.5,59,0.00,OVC,FEW,0.00,0.0,WeatherDisplay:10.37,2013-08-01 16:07:00,
2013-08-01 18:12:00,83.7,68.3,29.95,West,267,4.6,4.6,60,0.00,OVC,FEW,0.00,0.0,WeatherDisplay:10.37,2013-08-01 16:12:00,
2013-08-01 18:18:00,84.0,68.1,29.95,West,265,1.2,2.0,59,0.00,OVC,FEW,0.00,0.0,WeatherDisplay:10.37,2013-08-01 16:18:00,
2013-08-01 18:24:00,83.9,69.5,29.95,West,265,2.3,2.3,62,0.00,OVC,FEW,0.00,0.0,WeatherDisplay:10.37,2013-08-01 16:24:00,
2013-08-01 18:29:00,84.2,69.3,29.95,NNE,18,3.5,3.5,61,0.00,OVC,FEW,0.00,0.0,WeatherDisplay:10.37,2013-08-01 16:29:00,
2013-08-01 18:34:00,84.4,67.0,29.96,NW,325,2.3,2.3,56,0.00,OVC,FEW,0.00,0.0,WeatherDisplay:10.37,2013-08-01 16:34:00,
2013-08-01 18:40:00,84.5,65.5,29.95,NNE,16,3.5,3.5,53,0.00,OVC,FEW,0.00,0.0,WeatherDisplay:10.37,2013-08-01 16:40:00,
2013-08-01 18:46:00,84.6,65.6,29.96,NNE,28,4.0,4.0,53,0.00,OVC,FEW,0.00,0.0,WeatherDisplay:10.37,2013-08-01 16:46:00,
2013-08-01 18:51:00,84.5,67.1,29.96,NNE,23,1.0,5.0,56,0.00,OVC,FEW,0.00,0.0,WeatherDisplay:10.37,2013-08-01 16:51:00,
2013-08-01 18:56:00,84.4,66.5,29.96,NNE,28,3.5,3.5,55,0.00,OVC,FEW,0.00,0.0,WeatherDisplay:10.37,2013-08-01 16:56:00,
2013-08-01 19:01:00,83.8,68.9,29.96,NW,314,2.3,2.3,61,0.00,OVC,FEW,0.00,0.0,WeatherDisplay:10.37,2013-08-01 17:01:00,
2013-08-01 19:06:00,83.5,69.1,29.96,NNE,13,5.8,5.8,62,0.00,OVC,FEW,0.00,0.0,WeatherDisplay:10.37,2013-08-01 17:06:00,
2013-08-01 19:11:00,83.1,69.7,29.96,West,277,4.6,4.6,64,0.00,OVC,FEW,0.00,0.0,WeatherDisplay:10.37,2013-08-01 17:11:00,
2013-08-01 19:17:00,82.7,68.8,29.96,West,277,4.0,4.0,63,0.00,OVC,FEW,0.00,0.0,WeatherDisplay:10.37,2013-08-01 17:17:00,
2013-08-01 19:23:00,82.2,68.8,29.96,WNW,293,2.3,2.3,64,0.00,OVC,FEW,0.00,0.0,WeatherDisplay:10.37,2013-08-01 17:23:00,
2013-08-01 19:29:00,81.9,67.6,29.96,WNW,293,2.3,2.3,62,0.00,OVC,FEW,0.00,0.0,WeatherDisplay:10.37,2013-08-01 17:29:00,
2013-08-01 19:34:00,81.8,66.6,29.96,NNE,16,5.8,5.8,60,0.00,OVC,FEW,0.00,0.0,WeatherDisplay:10.37,2013-08-01 17:34:00,
2013-08-01 19:39:00,81.9,64.1,29.96,NNE,33,5.0,5.0,55,0.00,OVC,FEW,0.00,0.0,WeatherDisplay:10.37,2013-08-01 17:39:00,
2013-08-01 19:44:00,82.4,60.7,29.96,NE,55,6.9,6.9,48,0.00,OVC,FEW,0.00,0.0,WeatherDisplay:10.37,2013-08-01 17:44:00,
2013-08-01 19:50:00,82.7,60.4,29.96,ENE,60,8.1,8.1,47,0.00,OVC,FEW,0.00,0.0,WeatherDisplay:10.37,2013-08-01 17:50:00,
2013-08-01 19:55:00,82.8,59.9,29.97,NE,46,6.0,6.0,46,0.00,OVC,FEW,0.00,0.0,WeatherDisplay:10.37,2013-08-01 17:55:00,
2013-08-01 20:00:00,82.9,59.4,29.97,ENE,57,5.0,10.0,45,0.00,OVC,FEW,0.00,0.0,WeatherDisplay:10.37,2013-08-01 18:00:00,
2013-08-01 20:07:00,82.8,59.3,29.97,ENE,65,6.9,6.9,45,0.00,OVC,FEW,0.00,0.0,WeatherDisplay:10.37,2013-08-01 18:07:00,
2013-08-01 20:13:00,82.7,58.6,29.97,NE,50,6.9,6.9,44,0.00,OVC,FEW,0.00,0.0,WeatherDisplay:10.37,2013-08-01 18:13:00,
2013-08-01 20:18:00,82.6,58.5,29.97,East,80,8.1,8.1,44,0.00,OVC,FEW,0.00,0.0,WeatherDisplay:10.37,2013-08-01 18:18:00,
2013-08-01 20:24:00,82.3,58.2,29.97,NE,55,5.8,5.8,44,0.00,OVC,FEW,0.00,0.0,WeatherDisplay:10.37,2013-08-01 18:24:00,
2013-08-01 20:29:00,82.1,57.4,29.97,NE,42,8.1,8.1,43,0.00,OVC,FEW,0.00,0.0,WeatherDisplay:10.37,2013-08-01 18:29:00,
2013-08-01 20:35:00,82.0,57.3,29.97,ENE,57,4.6,4.6,43,0.00,OVC,FEW,0.00,0.0,WeatherDisplay:10.37,2013-08-01 18:35:00,
2013-08-01 20:41:00,81.8,57.1,29.97,ENE,62,5.0,5.0,43,0.00,OVC,FEW,0.00,0.0,WeatherDisplay:10.37,2013-08-01 18:41:00,
2013-08-01 20:46:00,81.5,57.5,29.97,ENE,67,6.0,6.0,44,0.00,OVC,FEW,0.00,0.0,WeatherDisplay:10.37,2013-08-01 18:46:00,
2013-08-01 20:53:00,81.4,57.4,29.98,ENE,68,7.0,7.0,44,0.00,CLR,FEW,0.00,0.0,WeatherDisplay:10.37,2013-08-01 18:53:00,
2013-08-01 20:58:00,81.3,57.3,29.98,ENE,77,6.9,6.9,44,0.00,CLR,FEW,0.00,0.0,WeatherDisplay:10.37,2013-08-01 18:58:00,
2013-08-01 21:04:00,81.2,57.2,29.98,ENE,69,5.8,5.8,44,0.00,CLR,FEW,0.00,0.0,WeatherDisplay:10.37,2013-08-01 19:04:00,
2013-08-01 21:09:00,81.0,57.0,29.98,NE,47,4.6,4.6,44,0.00,CLR,FEW,0.00,0.0,WeatherDisplay:10.37,2013-08-01 19:09:00,
2013-08-01 21:15:00,80.7,56.8,29.98,ENE,65,3.5,3.5,44,0.00,CLR,FEW,0.00,0.0,WeatherDisplay:10.37,2013-08-01 19:15:00,
2013-08-01 21:20:00,80.6,56.7,29.98,ENE,57,6.9,6.9,44,0.00,CLR,FEW,0.00,0.0,WeatherDisplay:10.37,2013-08-01 19:20:00,
2013-08-01 21:25:00,80.6,56.0,29.99,ENE,57,7.0,7.0,43,0.00,CLR,FEW,0.00,0.0,WeatherDisplay:10.37,2013-08-01 19:25:00,
2013-08-01 21:30:00,80.6,56.0,29.99,ENE,68,4.6,4.6,43,0.00,CLR,FEW,0.00,0.0,WeatherDisplay:10.37,2013-08-01 19:30:00,
2013-08-01 21:37:00,80.6,55.4,29.99,ENE,63,5.0,5.0,42,0.00,CLR,FEW,0.00,0.0,WeatherDisplay:10.37,2013-08-01 19:37:00,
2013-08-01 21:49:00,80.4,55.2,29.99,NE,44,5.8,5.8,42,0.00,CLR,FEW,0.00,0.0,WeatherDisplay:10.37,2013-08-01 19:49:00,
2013-08-01 21:54:00,80.4,54.5,30.00,NE,56,9.2,9.2,41,0.00,CLR,FEW,0.00,0.0,WeatherDisplay:10.37,2013-08-01 19:54:00,
2013-08-01 22:00:00,80.3,54.5,30.00,ENE,61,5.8,5.8,41,0.00,CLR,FEW,0.00,0.0,WeatherDisplay:10.37,2013-08-01 20:00:00,
2013-08-01 22:05:00,80.5,54.0,30.00,NE,38,10.4,10.4,40,0.00,CLR,FEW,0.00,0.0,WeatherDisplay:10.37,2013-08-01 20:05:00,
2013-08-01 22:13:00,80.6,54.0,30.00,ENE,73,5.8,5.8,40,0.00,CLR,FEW,0.00,0.0,WeatherDisplay:10.37,2013-08-01 20:13:00,
2013-08-01 22:47:00,80.4,52.5,30.00,NNE,28,6.0,6.0,38,0.00,CLR,FEW,0.00,0.0,WeatherDisplay:10.37,2013-08-01 20:47:00,
2013-08-01 22:52:00,80.1,52.2,30.00,NE,46,5.8,5.8,38,0.00,CLR,FEW,0.00,0.0,WeatherDisplay:10.37,2013-08-01 20:52:00,
2013-08-01 22:57:00,80.1,52.2,30.00,ENE,67,7.0,7.0,38,0.00,CLR,FEW,0.00,0.0,WeatherDisplay:10.37,2013-08-01 20:57:00,
2013-08-01 23:02:00,80.3,52.4,30.00,ENE,61,6.0,6.0,38,0.00,CLR,FEW,0.00,0.0,WeatherDisplay:10.37,2013-08-01 21:02:00,
2013-08-01 23:08:00,80.3,52.4,30.00,NE,51,4.6,4.6,38,0.00,CLR,FEW,0.00,0.0,WeatherDisplay:10.37,2013-08-01 21:08:00,
2013-08-01 23:42:00,79.1,54.0,30.00,ENE,58,3.5,3.5,42,0.00,CLR,FEW,0.00,0.0,WeatherDisplay:10.37,2013-08-01 21:42:00,
2013-08-01 23:47:00,78.7,53.7,30.00,ENE,63,4.6,4.6,42,0.00,CLR,FEW,0.00,0.0,WeatherDisplay:10.37,2013-08-01 21:47:00,
2013-08-01 23:52:00,78.9,53.2,30.00,NE,36,6.9,6.9,41,0.00,CLR,FEW,0.00,0.0,WeatherDisplay:10.37,2013-08-01 21:52:00,
2013-08-01 23:57:00,79.3,53.6,30.00,NE,51,10.4,10.4,41,0.00,CLR,FEW,0.00,0.0,WeatherDisplay:10.37,2013-08-01 21:57:00,